| time (UTC) | temp F | wind direction | speed knots | gust knots | rain 1hr in | rain 24hr in | rain mn in | humidity % | barometer mb |
| 20260506222250 | 59 | 189 | 0.0 | 1.7 | 0.00 | 0.00 | 0.00 | 86 | 1008.1 |
| 20260506221741 | 59 | 153 | 0.9 | 1.7 | 0.00 | 0.00 | 0.00 | 86 | 1008.1 |
| 20260506221237 | 59 | 128 | 0.9 | 1.7 | 0.00 | 0.00 | 0.00 | 86 | 1008.1 |
| 20260506220735 | 60 | 121 | 0.9 | 1.7 | 0.00 | 0.00 | 0.00 | 85 | 1008.1 |
| 20260506220511 | 60 | 90 | 1.7 | 3.5 | 0.00 | 0.00 | 0.00 | 84 | 1008.1 |
| 20260506215729 | 60 | 105 | 0.9 | 3.5 | 0.00 | 0.00 | 0.00 | 84 | 1008.3 |
| 20260506215231 | 60 | 124 | 1.7 | 7.0 | 0.00 | 0.00 | 0.00 | 83 | 1008.2 |
| 20260506214729 | 60 | 184 | 1.7 | 7.0 | 0.00 | 0.00 | 0.00 | 83 | 1008.1 |
| 20260506214232 | 60 | 257 | 1.7 | 5.2 | 0.00 | 0.00 | 0.00 | 84 | 1008.1 |
| 20260506213730 | 60 | 233 | 2.6 | 5.2 | 0.00 | 0.00 | 0.00 | 85 | 1008.1 |
| 20260506213231 | 59 | 217 | 2.6 | 7.0 | 0.00 | 0.00 | 0.00 | 86 | 1007.9 |
| 20260506212732 | 59 | 268 | 1.7 | 7.0 | 0.00 | 0.00 | 0.00 | 86 | 1007.9 |
| 20260506212229 | 59 | 213 | 1.7 | 4.3 | 0.00 | 0.00 | 0.00 | 86 | 1007.8 |
| 20260506211731 | 60 | 207 | 2.6 | 4.3 | 0.00 | 0.00 | 0.00 | 85 | 1007.7 |
| 20260506211228 | 60 | 229 | 2.6 | 4.3 | 0.00 | 0.00 | 0.00 | 85 | 1007.6 |
| 20260506210731 | 60 | 215 | 1.7 | 3.5 | 0.00 | 0.00 | 0.00 | 85 | 1007.7 |
| 20260506210230 | 60 | 227 | 1.7 | 3.5 | 0.00 | 0.00 | 0.00 | 85 | 1007.8 |
| 20260506205729 | 60 | 212 | 1.7 | 3.5 | 0.00 | 0.00 | 0.00 | 84 | 1007.8 |
| 20260506205231 | 60 | 252 | 1.7 | 4.3 | 0.00 | 0.00 | 0.00 | 83 | 1007.7 |
| 20260506205011 | 61 | 246 | 2.6 | 6.1 | 0.00 | 0.00 | 0.00 | 83 | 1007.7 |
| 20260506204232 | 61 | 223 | 3.5 | 7.0 | 0.00 | 0.00 | 0.00 | 83 | 1007.7 |
| 20260506203729 | 61 | 226 | 3.5 | 7.8 | 0.00 | 0.00 | 0.00 | 83 | 1007.7 |
| 20260506203229 | 61 | 211 | 4.3 | 8.7 | 0.00 | 0.00 | 0.00 | 83 | 1007.8 |
| 20260506202730 | 61 | 238 | 4.3 | 8.7 | 0.00 | 0.00 | 0.00 | 83 | 1007.8 |
| 20260506202230 | 61 | 216 | 3.5 | 7.8 | 0.00 | 0.00 | 0.00 | 83 | 1007.7 |
| 20260506201730 | 61 | 199 | 3.5 | 7.0 | 0.00 | 0.00 | 0.00 | 82 | 1007.8 |
| 20260506201232 | 61 | 205 | 3.5 | 7.8 | 0.00 | 0.00 | 0.00 | 82 | 1007.7 |
| 20260506200730 | 61 | 240 | 3.5 | 7.8 | 0.00 | 0.00 | 0.00 | 82 | 1007.8 |
| 20260506200227 | 61 | 275 | 3.5 | 7.8 | 0.00 | 0.00 | 0.00 | 83 | 1007.7 |
| 20260506195725 | 61 | 211 | 2.6 | 7.8 | 0.00 | 0.00 | 0.00 | 83 | 1007.7 |
| 20260506195225 | 61 | 221 | 2.6 | 4.3 | 0.00 | 0.00 | 0.00 | 84 | 1007.8 |
| 20260506194723 | 61 | 207 | 2.6 | 5.2 | 0.00 | 0.00 | 0.00 | 83 | 1007.8 |
| 20260506194223 | 61 | 215 | 1.7 | 6.1 | 0.00 | 0.00 | 0.00 | 83 | 1007.7 |
| 20260506193727 | 61 | 213 | 2.6 | 6.1 | 0.00 | 0.00 | 0.00 | 83 | 1007.7 |
| 20260506193223 | 61 | 219 | 2.6 | 8.7 | 0.00 | 0.00 | 0.00 | 82 | 1007.7 |
| 20260506192724 | 61 | 205 | 2.6 | 8.7 | 0.00 | 0.00 | 0.00 | 82 | 1007.7 |
| 20260506192219 | 61 | 196 | 3.5 | 7.0 | 0.00 | 0.00 | 0.00 | 82 | 1007.6 |
| 20260506191721 | 62 | 231 | 3.5 | 7.0 | 0.00 | 0.00 | 0.00 | 82 | 1007.5 |
| 20260506191213 | 62 | 232 | 2.6 | 6.1 | 0.00 | 0.00 | 0.00 | 81 | 1007.4 |
| 20260506190707 | 62 | 229 | 2.6 | 8.7 | 0.00 | 0.00 | 0.00 | 81 | 1007.4 |
| 20260506190204 | 62 | 153 | 4.3 | 8.7 | 0.00 | 0.00 | 0.00 | 81 | 1007.4 |
| 20260506185707 | 62 | 186 | 4.3 | 8.7 | 0.00 | 0.00 | 0.00 | 81 | 1007.3 |
| 20260506185202 | 62 | 238 | 3.5 | 10.4 | 0.00 | 0.00 | 0.00 | 80 | 1007.2 |
| 20260506184701 | 62 | 205 | 3.5 | 10.4 | 0.00 | 0.00 | 0.00 | 80 | 1007.2 |
| 20260506184203 | 62 | 162 | 3.5 | 10.4 | 0.00 | 0.00 | 0.00 | 80 | 1007.1 |
| 20260506183701 | 62 | 180 | 3.5 | 9.6 | 0.00 | 0.00 | 0.00 | 80 | 1006.9 |
| 20260506183207 | 62 | 217 | 2.6 | 9.6 | 0.00 | 0.00 | 0.00 | 80 | 1006.8 |
| 20260506182704 | 62 | 207 | 2.6 | 7.0 | 0.00 | 0.00 | 0.00 | 80 | 1006.7 |
| 20260506182205 | 62 | 235 | 3.5 | 7.0 | 0.00 | 0.00 | 0.00 | 80 | 1006.7 |
| 20260506181702 | 63 | 184 | 4.3 | 10.4 | 0.00 | 0.00 | 0.00 | 80 | 1006.6 |
| 20260506181443 | 63 | 194 | 4.3 | 10.4 | 0.00 | 0.00 | 0.00 | 80 | 1006.6 |
| 20260506180702 | 63 | 209 | 4.3 | 12.2 | 0.00 | 0.00 | 0.00 | 80 | 1006.6 |
| 20260506180204 | 63 | 199 | 3.5 | 12.2 | 0.00 | 0.00 | 0.00 | 80 | 1006.6 |
| 20260506175704 | 63 | 207 | 2.6 | 7.8 | 0.00 | 0.00 | 0.00 | 80 | 1006.7 |
| 20260506175442 | 63 | 227 | 3.5 | 8.7 | 0.00 | 0.00 | 0.00 | 80 | 1006.7 |
| 20260506174705 | 63 | 208 | 5.2 | 11.3 | 0.00 | 0.00 | 0.00 | 80 | 1006.6 |
| 20260506174156 | 63 | 211 | 5.2 | 11.3 | 0.00 | 0.00 | 0.00 | 80 | 1006.7 |
| 20260506173656 | 63 | 252 | 3.5 | 8.7 | 0.00 | 0.00 | 0.00 | 80 | 1006.7 |
| 20260506173155 | 63 | 200 | 3.5 | 8.7 | 0.00 | 0.00 | 0.00 | 80 | 1006.6 |
| 20260506172655 | 64 | 176 | 2.6 | 8.7 | 0.00 | 0.00 | 0.00 | 80 | 1006.5 |
| 20260506172152 | 64 | 225 | 3.5 | 9.6 | 0.00 | 0.00 | 0.00 | 80 | 1006.6 |
| 20260506171647 | 64 | 211 | 4.3 | 9.6 | 0.00 | 0.00 | 0.00 | 79 | 1006.6 |
| 20260506171142 | 64 | 201 | 4.3 | 11.3 | 0.00 | 0.00 | 0.00 | 79 | 1006.6 |
| 20260506170639 | 64 | 181 | 5.2 | 14.8 | 0.00 | 0.00 | 0.00 | 79 | 1006.6 |
| 20260506170138 | 64 | 201 | 5.2 | 14.8 | 0.00 | 0.00 | 0.00 | 78 | 1006.5 |
| 20260506165640 | 64 | 217 | 5.2 | 13.0 | 0.00 | 0.00 | 0.00 | 78 | 1006.7 |
| 20260506165136 | 64 | 196 | 5.2 | 13.0 | 0.00 | 0.00 | 0.00 | 78 | 1006.6 |
| 20260506164639 | 65 | 229 | 6.1 | 17.4 | 0.00 | 0.00 | 0.00 | 77 | 1006.7 |
| 20260506164131 | 65 | 215 | 6.1 | 17.4 | 0.00 | 0.00 | 0.00 | 77 | 1006.7 |
| 20260506163906 | 65 | 191 | 5.2 | 17.4 | 0.00 | 0.00 | 0.00 | 77 | 1006.7 |
| 20260506163129 | 65 | 215 | 6.1 | 17.4 | 0.00 | 0.00 | 0.00 | 77 | 1006.8 |
| 20260506162630 | 65 | 215 | 7.8 | 17.4 | 0.00 | 0.00 | 0.00 | 77 | 1006.9 |
| 20260506162129 | 65 | 168 | 7.0 | 18.2 | 0.00 | 0.00 | 0.00 | 76 | 1006.9 |
| 20260506161629 | 65 | 175 | 6.1 | 18.2 | 0.00 | 0.00 | 0.00 | 76 | 1007.0 |
| 20260506161130 | 66 | 198 | 6.1 | 17.4 | 0.00 | 0.00 | 0.00 | 75 | 1007.1 |
| 20260506160630 | 66 | 186 | 7.0 | 17.4 | 0.00 | 0.00 | 0.00 | 75 | 1007.1 |
| 20260506160409 | 66 | 195 | 5.2 | 13.9 | 0.00 | 0.00 | 0.00 | 74 | 1007.2 |
| 20260506155619 | 66 | 199 | 4.3 | 12.2 | 0.00 | 0.00 | 0.00 | 74 | 1007.2 |
| 20260506155119 | 67 | 205 | 6.1 | 12.2 | 0.00 | 0.00 | 0.00 | 74 | 1007.1 |
| 20260506154639 | 67 | 217 | 6.1 | 13.9 | 0.00 | 0.00 | 0.00 | 72 | 1007.2 |
| 20260506154630 | 67 | 207 | 6.1 | 13.9 | 0.00 | 0.00 | 0.00 | 73 | 1007.1 |
| 20260506153608 | 67 | 207 | 7.0 | 13.9 | 0.00 | 0.00 | 0.00 | 73 | 1007.3 |
| 20260506153344 | 67 | 202 | 7.0 | 13.9 | 0.00 | 0.00 | 0.00 | 73 | 1007.4 |
| 20260506152609 | 67 | 209 | 7.8 | 18.2 | 0.00 | 0.00 | 0.00 | 73 | 1007.3 |
| 20260506152104 | 67 | 167 | 8.7 | 18.2 | 0.00 | 0.00 | 0.00 | 73 | 1007.2 |
| 20260506151604 | 67 | 200 | 7.8 | 18.2 | 0.00 | 0.00 | 0.00 | 73 | 1007.3 |
| 20260506151343 | 67 | 224 | 6.1 | 17.4 | 0.00 | 0.00 | 0.00 | 71 | 1007.3 |
| 20260506150603 | 67 | 141 | 6.1 | 17.4 | 0.00 | 0.00 | 0.00 | 72 | 1007.3 |
| 20260506145603 | 68 | 207 | 6.1 | 17.4 | 0.00 | 0.00 | 0.00 | 71 | 1007.3 |
| 20260506145105 | 68 | 165 | 6.1 | 13.0 | 0.00 | 0.00 | 0.00 | 71 | 1007.3 |
| 20260506144603 | 68 | 144 | 6.1 | 13.9 | 0.00 | 0.00 | 0.00 | 71 | 1007.3 |
| 20260506144103 | 68 | 263 | 6.1 | 16.5 | 0.00 | 0.00 | 0.00 | 70 | 1007.3 |
| 20260506143603 | 68 | 219 | 7.0 | 16.5 | 0.00 | 0.00 | 0.00 | 69 | 1007.2 |
| 20260506143102 | 69 | 188 | 7.0 | 17.4 | 0.00 | 0.00 | 0.00 | 69 | 1007.4 |
| 20260506142602 | 70 | 169 | 7.8 | 17.4 | 0.00 | 0.00 | 0.00 | 67 | 1007.5 |
| 20260506142101 | 70 | 220 | 6.1 | 18.2 | 0.00 | 0.00 | 0.00 | 67 | 1007.6 |
| 20260506141603 | 71 | 119 | 6.1 | 18.2 | 0.00 | 0.00 | 0.00 | 65 | 1007.6 |
| 20260506141101 | 72 | 164 | 7.0 | 20.0 | 0.00 | 0.00 | 0.00 | 64 | 1007.6 |
| 20260506140602 | 72 | 215 | 7.8 | 20.0 | 0.00 | 0.00 | 0.00 | 62 | 1007.6 |
| 20260506140343 | 73 | 144 | 6.1 | 17.4 | 0.00 | 0.00 | 0.00 | 65 | 1007.7 |
| 20260506135847 | 72 | 213 | 6.1 | 16.5 | 0.00 | 0.00 | 0.00 | 64 | 1007.6 |
| 20260506135100 | 72 | 174 | 7.0 | 16.5 | 0.00 | 0.00 | 0.00 | 63 | 1007.6 |
| 20260506134846 | 73 | 173 | 6.1 | 18.2 | 0.00 | 0.00 | 0.00 | 62 | 1007.6 |
| 20260506134101 | 73 | 93 | 6.1 | 18.2 | 0.00 | 0.00 | 0.00 | 62 | 1007.7 |
| 20260506133602 | 72 | 185 | 6.1 | 14.8 | 0.00 | 0.00 | 0.00 | 64 | 1007.6 |
| 20260506133101 | 71 | 198 | 7.0 | 15.6 | 0.00 | 0.00 | 0.00 | 65 | 1007.5 |
| 20260506132604 | 70 | 235 | 7.0 | 15.6 | 0.00 | 0.00 | 0.00 | 65 | 1007.5 |
| 20260506132058 | 71 | 178 | 7.0 | 18.2 | 0.00 | 0.00 | 0.00 | 64 | 1007.7 |
| 20260506131559 | 71 | 130 | 7.0 | 18.2 | 0.00 | 0.00 | 0.00 | 63 | 1007.8 |
| 20260506131056 | 71 | 213 | 6.1 | 16.5 | 0.00 | 0.00 | 0.00 | 63 | 1007.7 |
| 20260506130843 | 71 | 216 | 6.1 | 16.5 | 0.00 | 0.00 | 0.00 | 62 | 1007.8 |
| 20260506130056 | 73 | 192 | 6.1 | 16.5 | 0.00 | 0.00 | 0.00 | 61 | 1007.9 |
| 20260506125552 | 74 | 156 | 7.0 | 18.2 | 0.00 | 0.00 | 0.00 | 58 | 1008.1 |
| 20260506125050 | 74 | 269 | 7.8 | 18.2 | 0.00 | 0.00 | 0.00 | 59 | 1008.1 |
| 20260506124546 | 75 | 163 | 6.1 | 15.6 | 0.00 | 0.00 | 0.00 | 58 | 1007.9 |
| 20260506124338 | 75 | 233 | 6.1 | 17.4 | 0.00 | 0.00 | 0.00 | 58 | 1007.9 |
| 20260506123544 | 75 | 135 | 6.1 | 17.4 | 0.00 | 0.00 | 0.00 | 58 | 1007.8 |
| 20260506123034 | 76 | 173 | 6.1 | 15.6 | 0.00 | 0.00 | 0.00 | 56 | 1008.3 |
| 20260506122817 | 75 | 232 | 6.1 | 17.4 | 0.00 | 0.00 | 0.00 | 58 | 1008.3 |
| 20260506122030 | 76 | 195 | 5.2 | 17.4 | 0.00 | 0.00 | 0.00 | 57 | 1008.3 |
| 20260506121533 | 76 | 208 | 4.3 | 14.8 | 0.00 | 0.00 | 0.00 | 56 | 1008.3 |
| 20260506121031 | 75 | 210 | 4.3 | 13.0 | 0.00 | 0.00 | 0.00 | 59 | 1008.3 |
| 20260506120530 | 74 | 247 | 5.2 | 13.0 | 0.00 | 0.00 | 0.00 | 60 | 1008.2 |
| 20260506120031 | 74 | 284 | 6.1 | 15.6 | 0.00 | 0.00 | 0.00 | 58 | 1008.2 |
| 20260506115538 | 74 | 161 | 5.2 | 15.6 | 0.00 | 0.00 | 0.00 | 58 | 1008.3 |
| 20260506115028 | 74 | 114 | 5.2 | 12.2 | 0.00 | 0.00 | 0.00 | 58 | 1008.2 |
| 20260506114517 | 75 | 157 | 4.3 | 13.0 | 0.00 | 0.00 | 0.00 | 56 | 1008.4 |
| 20260506114016 | 75 | 167 | 5.2 | 13.0 | 0.00 | 0.00 | 0.00 | 57 | 1008.4 |
| 20260506113514 | 74 | 191 | 5.2 | 14.8 | 0.00 | 0.00 | 0.00 | 58 | 1008.5 |
| 20260506113011 | 75 | 203 | 3.5 | 14.8 | 0.00 | 0.00 | 0.00 | 57 | 1008.5 |
| 20260506112511 | 75 | 182 | 3.5 | 11.3 | 0.00 | 0.00 | 0.00 | 59 | 1008.7 |
| 20260506112009 | 74 | 123 | 3.5 | 11.3 | 0.00 | 0.00 | 0.00 | 60 | 1008.6 |
| 20260506111511 | 72 | 203 | 2.6 | 11.3 | 0.00 | 0.00 | 0.00 | 61 | 1008.6 |
| 20260506111011 | 72 | 198 | 2.6 | 7.8 | 0.00 | 0.00 | 0.00 | 62 | 1008.6 |
| 20260506110747 | 73 | 163 | 3.5 | 11.3 | 0.00 | 0.00 | 0.00 | 61 | 1008.7 |
| 20260506110007 | 73 | 169 | 4.3 | 11.3 | 0.00 | 0.00 | 0.00 | 60 | 1008.9 |
| 20260506105745 | 74 | 234 | 3.5 | 11.3 | 0.00 | 0.00 | 0.00 | 60 | 1009.0 |
| 20260506105005 | 72 | 196 | 3.5 | 13.0 | 0.00 | 0.00 | 0.00 | 63 | 1008.9 |
| 20260506104502 | 70 | 123 | 3.5 | 13.0 | 0.00 | 0.00 | 0.00 | 64 | 1008.8 |
| 20260506104236 | 70 | 174 | 3.5 | 11.3 | 0.00 | 0.00 | 0.00 | 64 | 1008.8 |
| 20260506103505 | 70 | 211 | 3.5 | 11.3 | 0.00 | 0.00 | 0.00 | 65 | 1008.7 |
| 20260506103003 | 70 | 265 | 4.3 | 12.2 | 0.00 | 0.00 | 0.00 | 65 | 1008.8 |
| 20260506102746 | 69 | 202 | 5.2 | 18.2 | 0.00 | 0.00 | 0.00 | 65 | 1008.8 |
| 20260506102001 | 69 | 202 | 5.2 | 18.2 | 0.00 | 0.00 | 0.00 | 65 | 1008.8 |
| 20260506101503 | 69 | 240 | 5.2 | 14.8 | 0.00 | 0.00 | 0.00 | 64 | 1008.8 |
| 20260506101002 | 69 | 229 | 5.2 | 14.8 | 0.00 | 0.00 | 0.00 | 63 | 1008.9 |
| 20260506100501 | 69 | 227 | 6.1 | 14.8 | 0.00 | 0.00 | 0.00 | 63 | 1008.8 |
| 20260506095953 | 70 | 193 | 6.1 | 16.5 | 0.00 | 0.00 | 0.00 | 61 | 1008.9 |
| 20260506095453 | 71 | 134 | 6.1 | 16.5 | 0.00 | 0.00 | 0.00 | 60 | 1008.9 |
| 20260506094949 | 72 | 181 | 5.2 | 13.0 | 0.00 | 0.00 | 0.00 | 59 | 1009.0 |
| 20260506094449 | 73 | 238 | 4.3 | 13.0 | 0.00 | 0.00 | 0.00 | 57 | 1008.9 |
| 20260506093941 | 74 | 221 | 3.5 | 13.0 | 0.00 | 0.00 | 0.00 | 53 | 1009.0 |
| 20260506093715 | 76 | 146 | 3.5 | 10.4 | 0.00 | 0.00 | 0.00 | 54 | 1009.2 |
| 20260506093217 | 75 | 165 | 4.3 | 14.8 | 0.00 | 0.00 | 0.00 | 55 | 1008.9 |
| 20260506092434 | 74 | 219 | 4.3 | 14.8 | 0.00 | 0.00 | 0.00 | 54 | 1008.9 |
| 20260506091934 | 74 | 234 | 4.3 | 10.4 | 0.00 | 0.00 | 0.00 | 54 | 1008.7 |
| 20260506091433 | 75 | 237 | 3.5 | 12.2 | 0.00 | 0.00 | 0.00 | 53 | 1008.9 |
| 20260506090931 | 75 | 169 | 3.5 | 12.2 | 0.00 | 0.00 | 0.00 | 54 | 1008.9 |
| 20260506090431 | 76 | 189 | 3.5 | 10.4 | 0.00 | 0.00 | 0.00 | 53 | 1009.0 |
| 20260506085922 | 74 | 205 | 3.5 | 10.4 | 0.00 | 0.00 | 0.00 | 55 | 1008.9 |
| 20260506085409 | 74 | 281 | 2.6 | 10.4 | 0.00 | 0.00 | 0.00 | 54 | 1009.0 |
| 20260506084902 | 73 | 191 | 1.7 | 7.0 | 0.00 | 0.00 | 0.00 | 54 | 1008.9 |
| 20260506084400 | 74 | 202 | 1.7 | 6.1 | 0.00 | 0.00 | 0.00 | 59 | 1009.0 |
| 20260506084140 | 73 | 161 | 2.6 | 7.0 | 0.00 | 0.00 | 0.00 | 59 | 1009.0 |
| 20260506083402 | 72 | 229 | 2.6 | 9.6 | 0.00 | 0.00 | 0.00 | 59 | 1009.1 |
| 20260506082902 | 72 | 120 | 2.6 | 9.6 | 0.00 | 0.00 | 0.00 | 61 | 1009.0 |
| 20260506082403 | 71 | 144 | 2.6 | 7.0 | 0.00 | 0.00 | 0.00 | 62 | 1008.9 |
| 20260506082218 | 71 | 213 | 2.6 | 7.0 | 0.00 | 0.00 | 0.00 | 63 | 1009.0 |
| 20260506081402 | 71 | 144 | 0.9 | 7.0 | 0.00 | 0.00 | 0.00 | 62 | 1008.9 |
| 20260506080902 | 70 | 128 | 0.9 | 5.2 | 0.00 | 0.00 | 0.00 | 64 | 1008.8 |
| 20260506080403 | 70 | 126 | 2.6 | 6.1 | 0.00 | 0.00 | 0.00 | 64 | 1008.9 |
| 20260506072902 | 66 | 198 | 1.7 | 5.2 | 0.00 | 0.00 | 0.00 | 72 | 1008.9 |
| 20260506072403 | 66 | 163 | 1.7 | 6.1 | 0.00 | 0.00 | 0.00 | 70 | 1008.8 |
| 20260506071856 | 66 | 196 | 1.7 | 7.0 | 0.00 | 0.00 | 0.00 | 69 | 1008.8 |
| 20260506071347 | 67 | 115 | 0.9 | 3.5 | 0.00 | 0.00 | 0.00 | 70 | 1008.8 |
| 20260506070844 | 66 | 109 | 0.9 | 3.5 | 0.00 | 0.00 | 0.00 | 70 | 1008.7 |
| 20260506070341 | 66 | 143 | 0.9 | 3.5 | 0.00 | 0.00 | 0.00 | 72 | 1008.8 |
| 20260506062256 | 60 | 196 | 0.0 | 1.7 | 0.00 | 0.00 | 0.00 | 75 | 1008.6 |
| 20260506061756 | 61 | 268 | 0.9 | 2.6 | 0.00 | 0.00 | 0.00 | 75 | 1008.7 |
| 20260506061538 | 61 | 348 | 1.7 | 3.5 | 0.00 | 0.00 | 0.00 | 77 | 1008.7 |
| 20260506060742 | 60 | 68 | 0.9 | 3.5 | 0.00 | 0.00 | 0.00 | 79 | 1008.5 |
| 20260506060241 | 59 | 86 | 0.9 | 3.5 | 0.00 | 0.00 | 0.00 | 79 | 1008.5 |
| 20260506051300 | 49 | 309 | 0.9 | 2.6 | 0.00 | 0.00 | 0.00 | 100 | 1007.8 |
| 20260506051252 | 50 | 49 | 0.9 | 1.7 | 0.00 | 0.00 | 0.00 | 100 | 1007.8 |
| 20260506050231 | 49 | 21 | 0.9 | 2.6 | 0.00 | 0.00 | 0.00 | 100 | 1007.6 |
| 20260506045017 | 48 | 52 | 0.0 | 1.7 | 0.00 | 0.00 | 0.00 | 99 | 1007.7 |
| 20260506044223 | 48 | 344 | 0.9 | 1.7 | 0.00 | 0.00 | 0.00 | 98 | 1007.6 |
| 20260506043710 | 48 | 333 | 0.9 | 1.7 | 0.00 | 0.00 | 0.00 | 98 | 1007.5 |
| 20260506043209 | 48 | 313 | 0.9 | 1.7 | 0.00 | 0.00 | 0.00 | 98 | 1007.6 |
| 20260506042703 | 48 | 348 | 0.0 | 1.7 | 0.00 | 0.00 | 0.00 | 98 | 1007.5 |
| 20260506042203 | 48 | 327 | 0.9 | 1.7 | 0.00 | 0.00 | 0.00 | 98 | 1007.5 |
| 20260506041702 | 48 | 326 | 0.9 | 1.7 | 0.00 | 0.00 | 0.00 | 97 | 1007.5 |
| 20260506041200 | 48 | 321 | 0.0 | 1.7 | 0.00 | 0.00 | 0.00 | 97 | 1007.5 |
| 20260506040702 | 48 | 303 | 0.0 | 1.7 | 0.00 | 0.00 | 0.00 | 97 | 1007.5 |
| 20260506040201 | 49 | 303 | 0.9 | 2.6 | 0.00 | 0.00 | 0.00 | 97 | 1007.5 |
| 20260506035702 | 49 | 303 | 0.9 | 2.6 | 0.00 | 0.00 | 0.00 | 97 | 1007.4 |
| 20260506035201 | 49 | 292 | 0.9 | 1.7 | 0.00 | 0.00 | 0.00 | 97 | 1007.4 |
| 20260506034709 | 49 | 279 | 0.0 | 1.7 | 0.00 | 0.00 | 0.00 | 97 | 1007.3 |
| 20260506034205 | 49 | 279 | 0.0 | 1.7 | 0.00 | 0.00 | 0.00 | 97 | 1007.3 |
| 20260506033652 | 49 | 279 | 0.0 | 1.7 | 0.00 | 0.00 | 0.00 | 97 | 1007.2 |
| 20260506033134 | 49 | 279 | 0.0 | 1.7 | 0.00 | 0.00 | 0.00 | 97 | 1007.3 |
| 20260506032630 | 49 | 279 | 0.9 | 1.7 | 0.00 | 0.00 | 0.00 | 97 | 1007.2 |
| 20260506032131 | 49 | 279 | 0.9 | 1.7 | 0.00 | 0.00 | 0.00 | 97 | 1007.3 |
| 20260506031629 | 49 | 279 | 0.0 | 1.7 | 0.00 | 0.00 | 0.00 | 97 | 1007.2 |
| 20260506031411 | 50 | 285 | 0.9 | 1.7 | 0.00 | 0.00 | 0.00 | 96 | 1007.2 |
| 20260506030702 | 50 | 12 | 0.9 | 1.7 | 0.00 | 0.00 | 0.00 | 96 | 1007.3 |
| 20260506030654 | 50 | 326 | 0.9 | 1.7 | 0.00 | 0.00 | 0.00 | 96 | 1007.2 |
| 20260506025629 | 50 | 286 | 0.9 | 2.6 | 0.00 | 0.00 | 0.00 | 96 | 1007.3 |
| 20260506025131 | 50 | 326 | 0.9 | 2.6 | 0.00 | 0.00 | 0.00 | 96 | 1007.3 |
| 20260506024621 | 50 | 336 | 0.0 | 1.7 | 0.00 | 0.00 | 0.00 | 96 | 1007.3 |
| 20260506024121 | 50 | 344 | 0.9 | 1.7 | 0.00 | 0.00 | 0.00 | 96 | 1007.3 |
| 20260506023615 | 50 | 355 | 0.9 | 1.7 | 0.00 | 0.00 | 0.00 | 96 | 1007.3 |
| 20260506023116 | 51 | 73 | 0.9 | 2.6 | 0.00 | 0.00 | 0.00 | 96 | 1007.1 |
| 20260506022617 | 51 | 292 | 0.9 | 3.5 | 0.00 | 0.00 | 0.00 | 96 | 1007.3 |
| 20260506022115 | 51 | 289 | 0.9 | 3.5 | 0.00 | 0.00 | 0.00 | 96 | 1007.1 |
| 20260506021852 | 51 | 72 | 0.9 | 2.6 | 0.00 | 0.00 | 0.00 | 96 | 1007.0 |
| 20260506021112 | 51 | 34 | 0.0 | 1.7 | 0.00 | 0.00 | 0.00 | 96 | 1007.0 |
| 20260506020610 | 51 | 252 | 0.9 | 2.6 | 0.00 | 0.00 | 0.00 | 96 | 1007.0 |
| 20260506015602 | 51 | 282 | 0.9 | 3.5 | 0.00 | 0.00 | 0.00 | 95 | 1007.1 |
| 20260506015102 | 51 | 337 | 0.9 | 2.6 | 0.00 | 0.00 | 0.00 | 95 | 1007.1 |
| 20260506014603 | 51 | 302 | 0.9 | 1.7 | 0.00 | 0.00 | 0.00 | 95 | 1007.1 |
| 20260506014102 | 51 | 265 | 0.9 | 1.7 | 0.00 | 0.00 | 0.00 | 94 | 1007.0 |
| 20260506013602 | 52 | 294 | 0.0 | 1.7 | 0.00 | 0.00 | 0.00 | 94 | 1007.0 |
| 20260506013101 | 52 | 316 | 0.0 | 1.7 | 0.00 | 0.00 | 0.00 | 94 | 1006.9 |
| 20260506012905 | 52 | 216 | 0.0 | 1.7 | 0.00 | 0.00 | 0.00 | 94 | 1006.8 |
| 20260506012102 | 52 | 216 | 0.9 | 2.6 | 0.00 | 0.00 | 0.00 | 94 | 1006.8 |
| 20260506011603 | 52 | 5 | 0.9 | 2.6 | 0.00 | 0.00 | 0.00 | 94 | 1006.8 |
| 20260506011101 | 52 | 271 | 0.9 | 2.6 | 0.00 | 0.00 | 0.00 | 94 | 1006.8 |
| 20260506010603 | 52 | 286 | 0.9 | 2.6 | 0.00 | 0.00 | 0.00 | 94 | 1006.8 |
| 20260506010346 | 52 | 326 | 0.9 | 2.6 | 0.00 | 0.00 | 0.00 | 94 | 1006.8 |
| 20260506005558 | 52 | 306 | 0.9 | 2.6 | 0.00 | 0.00 | 0.00 | 94 | 1006.8 |
| 20260506005323 | 52 | 27 | 1.7 | 3.5 | 0.00 | 0.00 | 0.00 | 94 | 1006.7 |
| 20260506004546 | 52 | 74 | 1.7 | 4.3 | 0.00 | 0.00 | 0.00 | 93 | 1006.8 |
| 20260506004034 | 53 | 58 | 0.9 | 4.3 | 0.00 | 0.00 | 0.00 | 93 | 1006.8 |
| 20260506003529 | 53 | 130 | 0.9 | 4.3 | 0.00 | 0.00 | 0.00 | 93 | 1006.7 |
| 20260506003313 | 53 | 76 | 0.9 | 4.3 | 0.00 | 0.00 | 0.00 | 92 | 1006.6 |
| 20260506002532 | 53 | 333 | 0.9 | 2.6 | 0.00 | 0.00 | 0.00 | 91 | 1006.6 |
| 20260506002033 | 53 | 319 | 0.9 | 2.6 | 0.00 | 0.00 | 0.00 | 91 | 1006.7 |
| 20260506001523 | 53 | 306 | 0.9 | 2.6 | 0.00 | 0.00 | 0.00 | 91 | 1006.7 |
| 20260506001021 | 53 | 286 | 0.9 | 2.6 | 0.00 | 0.00 | 0.00 | 91 | 1006.7 |
| 20260506000520 | 54 | 24 | 0.9 | 2.6 | 0.00 | 0.00 | 0.00 | 92 | 1006.8 |
| 20260506000016 | 54 | 24 | 0.9 | 2.6 | 0.00 | 0.00 | 0.00 | 92 | 1006.8 |
| 20260505235514 | 54 | 34 | 0.9 | 2.6 | 0.00 | 0.00 | 0.00 | 92 | 1006.7 |
| 20260505235015 | 54 | 350 | 0.9 | 2.6 | 0.00 | 0.00 | 0.00 | 92 | 1006.7 |
| 20260505234515 | 54 | 326 | 0.9 | 2.6 | 0.00 | 0.00 | 0.00 | 93 | 1006.7 |
| 20260505234009 | 54 | 148 | 0.9 | 4.3 | 0.00 | 0.00 | 0.00 | 93 | 1006.6 |
| 20260505233746 | 54 | 235 | 2.6 | 6.1 | 0.00 | 0.00 | 0.00 | 93 | 1006.8 |
| 20260505233244 | 53 | 169 | 2.6 | 6.1 | 0.00 | 0.00 | 0.00 | 94 | 1006.8 |
| 20260505232744 | 53 | 128 | 0.9 | 5.2 | 0.00 | 0.00 | 0.00 | 94 | 1006.7 |
| 20260505232003 | 53 | 66 | 0.9 | 4.3 | 0.00 | 0.00 | 0.00 | 94 | 1006.7 |
| 20260505231501 | 53 | 219 | 2.6 | 7.8 | 0.00 | 0.00 | 0.00 | 94 | 1006.6 |
| 20260505231001 | 53 | 165 | 2.6 | 7.8 | 0.00 | 0.00 | 0.00 | 94 | 1006.7 |
| 20260505230502 | 53 | 266 | 1.7 | 7.0 | 0.00 | 0.00 | 0.00 | 93 | 1006.6 |
| 20260505225957 | 53 | 240 | 1.7 | 3.5 | 0.00 | 0.00 | 0.00 | 92 | 1006.9 |
| 20260505225446 | 53 | 218 | 1.7 | 2.6 | 0.00 | 0.00 | 0.00 | 91 | 1006.8 |
| 20260505224945 | 53 | 237 | 0.9 | 2.6 | 0.00 | 0.00 | 0.00 | 91 | 1006.8 |
| 20260505224440 | 53 | 205 | 0.9 | 2.6 | 0.00 | 0.00 | 0.00 | 91 | 1006.9 |
| 20260505223938 | 53 | 194 | 0.0 | 2.6 | 0.00 | 0.00 | 0.00 | 91 | 1006.9 |
| 20260505223438 | 53 | 197 | 0.0 | 1.7 | 0.00 | 0.00 | 0.00 | 91 | 1006.9 |
| 20260505222934 | 53 | 207 | 0.0 | 0.9 | 0.00 | 0.00 | 0.00 | 91 | 1007.0 |